Regional Weather Roundup
Issued by NWS

Home | Current Version | Previous Version | Text Only | Print | Product List | Glossary Off
Versions: 1 2 3 4 5 6 7 8 9 10 11 12 13 14 15 16 17 18 19 20 21 22 23 24 25 26 27 28 29 30 31 32 33 34 35 36 37 38 39 40 41 42 43 44 45 46 47 48 49 50

000
ASUS43 KTOP 030759
RWRKS

WEATHER ROUNDUP FOR KANSAS
NATIONAL WEATHER SERVICE GOODLAND KS
300 AM CDT FRI JUL 03 2015

NOTE:  "FAIR" INDICATES FEW OR NO CLOUDS BELOW 12,000 FEET WITH NO
SIGNIFICANT WEATHER AND/OR OBSTRUCTIONS TO VISIBILITY.

KSZ001>006-013>018-027>032-041>047-030900-
NORTHWEST KANSAS

CITY           SKY/WX    TMP DP  RH WIND       PRES   REMARKS
GOODLAND       CLEAR     62  56  80 SE8       30.09S
HAYS           CLEAR     66  57  72 NW7       29.99F
HILL CITY      CLEAR     64  60  87 CALM      30.01F
RUSSELL        CLEAR     66  64  93 W5        29.96F
$$

KSZ061>065-074>080-084>089-030900-
SOUTHWEST KANSAS

CITY           SKY/WX    TMP DP  RH WIND       PRES   REMARKS
DODGE CITY     PTCLDY    64  62  93 NW6       30.02S
ELKHART          N/A     65  60  84 W5          N/A
GARDEN CITY    MOCLDY    68  64  87 NE10      30.04S
GREAT BEND     CLEAR     70  63  78 N8        29.98S
LIBERAL        CLEAR     64  61  88 CALM      30.05S
$$

KSZ066>073-081>083-090>101-030900-
SOUTHEAST KANSAS

CITY           SKY/WX    TMP DP  RH WIND       PRES   REMARKS
CHANUTE        PTCLDY    69  69 100 E3        29.90S FOG
COFFEYVILLE    CLEAR     68  67  96 S3        29.90S
HUTCHINSON     CLEAR     71  66  84 SW5       29.93F
MEDICINE LODGE   N/A     65  63  93 N3        29.94F
NEWTON         CLEAR     70  63  78 W6        29.94F
PARSONS        MOCLDY    68  68 100 CALM      29.91S
WICHITA INTL   PTCLDY    69  66  90 CALM      29.92F
WICHITA JABRA  CLEAR     67  65  93 CALM      29.92F
WINFIELD       PTCLDY    65  64  97 CALM      29.92F FOG
$$

KSZ007>012-019>026-033>040-048>060-102>105-030900-
NORTHEAST KANSAS

CITY           SKY/WX    TMP DP  RH WIND       PRES   REMARKS
CONCORDIA      CLOUDY    67  65  93 N7        29.94S
EMPORIA        LGT RAIN  70  67  90 NE5       29.91S
LAWRENCE       HVY RAIN  67  66  97 E8        29.92S VSB 3/4
MANHATTAN      CLOUDY    70  69  97 E10       29.92R
OLATHE IND     LGT RAIN  68  66  93 E6        29.92F FOG
OLATHE EXE     CLOUDY    67  65  93 E3        29.91F
SALINA         CLEAR     68  64  87 NE3       29.93S
TOPEKA BILLARD CLOUDY    69  68  96 E6        29.92S FOG
TOPEKA FORBES  CLOUDY    70  67  90 E5        29.91F FOG
$$


USA.gov is the U.S. government's official web portal to all federal, state and local government web resources and services.